Showing default

COSMOS 2227, 22284

Orbit data source: Space-Track

COSMOS 2227, 22284 is a payload satellite owned by GRU (CIS) in LEO that was launched on Fri, 25 Dec 1992 UTC via a ZENIT-2 launch vehicle from the Tyuratam Missile And Space Complex (TTMTR). Payload-class satellites include a variety of spacecraft equipped with specific instruments for various scientific and technological missions. These include communications satellites like Starlink; space stations such as the ISS; scientific satellites like the Hubble; Earth observation satellites from companies like Planet Labs, Umbra, and HawkEye 360; GPS; miniature CubeSats for education and research; and military/defense satellites.

Loading next visibility...
Identifier
22284, 1992-093A
Orbit
LEO
Country
Flag of CISCIS
Related business
Manufacturer
Yuzhnoe
Mission
Defense Sigint
Bus & Motor
TSELINA-2, Unknown motor
Mass
3,250 kg wet, 3,250 kg dry
Launch date (UTC)
1992-12-25 (33 years ago)
Launch vehicle
ZENIT-2
Launch site
Tyuratam Missile And Space Complex (TTMTR)
Object type
Payload
Rocket body
Debris
Shape & HBR
Unknown shape, 9.5 m
Radar Cross Section
Large (>1 m²)

Expand to show TLE details & history
Last TLE update: 8 hours ago

TLE from 8 hours ago
0 COSMOS 2227
1 22284U 92093A   25298.10533750  .00000113  00000-0  84953-4 0  9999
2 22284  70.9770 316.3144 0020705 240.5294 119.3762 14.13723699693600
Epoch: 2025-10-25T02:31Z
TLE epoch observation values (Epoch: 2025-10-25T02:31:41.159Z)
Latitude
-0.00004°
Longitude
-115.34778°
Altitude
856.417 km
Speed
7.421 km/s
True Right ascension
21h 05m 15s
True Declination
0° 00' 00"
Sunlit
Object was in daylight at epoch
Visualization orbit readout
Latitude
Unknown
Longitude
Unknown
Altitude
Unknown
Speed
Unknown
Apparent Right ascension
Unknown
Apparent Declination
Unknown
Sunlit
N/A
Visualization observer readout
Local Sidereal Time
05:55:14
Azimuth
Unknown
Elevation
Unknown
Doppler factor
Unknown
Orbital elements
Apogee altitude
859.54 km
Perigee altitude
829.631 km
Semi-major axis
7,222.723 km
Eccentricity
0.00207
Inclination
70.977°
RAAN
316.3144°
Arg. of periapsis
240.5294°
True anomaly
119.58269°
Mean anomaly
119.3762°
Eccentric anomaly
119.47947°
Mean motion
3.53583 °/min
Orbital period
101.81 mins
BSTAR
0.000084953
Loading maneuver chart data...
Computing Atmospheric mass density...

Documentation

Showing up to 5 results
|